Weather in Amparai

Sri Lanka     7°17′51″N   81°40′38″E
temp.,
°C
wind,
m/s
gust,
m/s
humid.,
%
clouds,
%
prec.,
mm/h
press.,
hPa
HPBL,
m
3 march, wed
wed323:30+23n24790 0.0 1013288
02:30+23nnw248143 0.0 1010306
05:30+22nw248337 0.0 1010309
08:30+25nnw247156 0.0 1012580
11:30+29ne555835 0.0 10121481
14:30+29ne55595 0.0 10091295
17:30+27ne35695 0.0 1010500
20:30+24ne34766 0.0 1012270
4 march, thu
thu423:30+23ne138010 0.0 1013278
02:30+22nw028030 0.0 1010274
05:30+22wnw238225 0.0 1010320
08:30+26nnw137030 0.0 1013550
11:30+29ene445621 0.0 10121418
14:30+29ene345522 0.0 10091300
17:30+27ene356611 0.0 1009401
20:30+25ne24740 0.0 1012233
5 march, fri
fri523:30+24nne13828 0.0 1012230
02:30+23nw138416 0.0 1010227
05:30+22nw238712 0.0 1011214
08:30+26wnw23753 0.0 1013251
11:30+29ne33605 0.0 10131069
14:30+29ne446112 0.0 1009805
17:30+27nne467445 0.0 1010454
20:30+26nne3579100 0.0 1012278
6 march, sat
sat623:30+25nnw2382100 0.0 1012197
02:30+24nw238591 0.2 1010137
05:30+24nw238895 0.2 1010174
08:30+27nnw248084 0.0 1013466
11:30+30ene336767 0.2 1012991
14:30+30ene436529 0.2 1009934
17:30+28ene457616 0.2 1009479
20:30+26ne23840 0.0 1012184
7 march, sun
sun723:30+25n23880 1.1 1012159
02:30+25nw129113 1.8 1010139
05:30+24w229229 2.9 101043
08:30+28wnw117733 0.0 1013318
11:30+30e326524 0.1 1011962
14:30+30e446620 0.0 1008732
17:30+28ene457510 0.0 1008661
20:30+26e23830 0.0 1011170